Location: Austin
(30.3000°N, 97.7500°W)
Time: 00:19:16
(UTC-05:00)

Cosmos 1908 - Pass Details

Date: 11 June 2024
Orbit: 466 x 480 km, 82.5° (Epoch: 21 June)

Event Time Altitude Azimuth Distance (km) Brightness Sun altitude
Rises 22:37:29 0° 0° (N) 2,520 7.4 -22.2°
Reaches altitude 10° 22:39:37 10° 7° (N) 1,642 6.3 -22.6°
Enters shadow 22:41:59 34° 32° (NNE) 796 4.2 -22.9°
